Probability
3 3 3 1 0 0 0 0 0 0 0 0 0 0 0 0 0 0 0 0 0 0 0 0 0 0 0 0 0 0 0 0 0 0 0 0 0 0 0 0 0 0 0
2 2 1 0 0 0 0 0 0 0 0 0 0 0 0 0 0 0 0 0 0 0 0 0 0 0 0 0 0 0 0 0 0 0 0 0 0 0 0 0 0 0 0
1 1 0 0 0 0 0 0 0 0 0 0 0 0 0 0 0 0 0 0 0 0 0 0 0 0 0 0 0 0 0 0 0 0 0 0 0 0 0 0 0 0 0
0 0 0 0 0 0 0 0 0 0 0 0 0 0 0 0 0 0 0 0 0 0 0 0 0 0 0 0 0 0 0 0 0 0 0 0 0 0 0 0 0 0 0
0 0 0 0 0 0 0 0 0 0 0 0 0 0 0 0 0 0 0 0 0 0 0 0 0 0 0 0 0 0 0 0 0 0 0 0 0 0 0 0 0 0 0
0 0 0 0 0 0 0 0 0 0 0 0 0 0 0 0 0 0 0 0 0 0 0 0 0 0 0 0 0 0 0 0 0 0 0 0 0 0 0 0 0 0 0
0 0 0 0 0 0 0 0 0 0 0 0 0 0 0 0 0 0 0 0 0 0 0 0 0 0 0 0 0 0 0 0 0 0 0 0 0 0 0 0 0 0 0
0 0 0 0 0 0 0 0 0 0 0 0 0 0 0 0 0 0 0 0 0 0 0 0 0 0 0 0 0 0 0 0 0 0 0 0 0 0 0 0 0 0 0
0 0 0 0 0 0 0 0 0 0 0 0 0 0 0 0 0 0 0 0 0 0 0 0 0 0 0 0 0 0 0 0 0 0 0 0 0 0 0 0 0 0 0
0 0 0 0 0 0 0 0 0 0 0 0 0 0 0 0 0 0 0 0 0 0 0 0 0 0 0 0 0 0 0 0 0 0 0 0 0 0 0 0 0 0 0
0 0 0 0 0 0 0 0 0 0 0 0 0 0 0 0 0 0 0 0 0 0 0 0 0 0 0 0 0 0 0 0 0 0 0 0 0 0 0 0 0 0 0
0 0 0 0 0 0 0 0 0 0 0 0 0 0 0 0 0 0 0 0 0 0 0 0 0 0 0 0 0 0 0 0 0 0 0 0 0 0 0 0 0 0 0
0 0 0 0 0 0 0 0 0 0 0 0 0 0 0 0 0 0 0 0 0 0 0 0 0 0 0 0 0 0 0 0 0 0 0 0 0 0 0 0 0 0 0
0 0 0 0 0 0 0 0 0 0 0 0 0 0 0 0 0 0 0 0 0 0 0 0 0 0 0 0 0 0 0 0 0 0 0 0 0 0 0 0 0 0 0
0 0 0 0 0 0 0 0 0 0 0 0 0 0 0 0 0 0 0 0 0 0 0 0 0 0 0 0 0 0 0 0 0 0 0 0 0 0 0 0 0 0 0
0 0 0 0 0 0 0 0 0 0 0 0 0 0 0 0 0 0 0 0 0 0 0 0 0 0 0 0 0 0 0 0 0 0 0 0 0 0 0 0 0 0 0
0 0 0 0 0 0 0 0 0 0 0 0 0 0 0 0 0 0 0 0 0 0 0 0 0 0 0 0 0 0 0 0 0 0 0 0 0 0 0 0 0 0 0
0 0 0 0 0 0 0 0 0 0 0 0 0 0 0 0 0 0 0 0 0 0 0 0 0 0 0 0 0 0 0 0 0 0 0 0 0 0 0 0 0 0 0
0 0 0 0 0 0 0 0 0 0 0 0 0 0 0 0 0 0 0 0 0 0 0 0 0 0 0 0 0 0 0 0 0 0 0 0 0 0 0 0 0 0 0
0 0 0 0 0 0 0 0 0 0 0 0 0 0 0 0 0 0 0 0 0 0 0 0 0 0 0 0 0 0 0 0 0 0 0 0 0 0 0 0 0 0 0
0 0 0 0 0 0 0 0 0 0 0 0 0 0 0 0 0 0 0 0 0 0 0 0 0 0 0 0 0 0 0 0 0 0 0 0 0 0 0 0 0 0 0
0 0 0 0 0 0 0 0 0 0 0 0 0 0 0 0 0 0 0 0 0 0 0 0 0 0 0 0 0 0 0 0 0 0 0 0 0 0 0 0 0 0 0
0 0 0 0 0 0 0 0 0 0 0 0 0 0 0 0 0 0 0 0 0 0 0 0 0 0 0 0 0 0 0 0 0 0 0 0 0 0 0 0 0 0 0
0 0 0 0 0 0 0 0 0 0 0 0 0 0 0 0 0 0 0 0 0 0 0 0 0 0 0 0 0 0 0 0 0 0 0 0 0 0 0 0 0 0 0
0 0 0 0 0 0 0 0 0 0 0 0 0 0 0 0 0 0 0 0 0 0 0 0 0 0 0 0 0 0 0 0 0 0 0 0 0 0 0 0 0 0 0
0 0 0 0 0 0 0 0 0 0 0 0 0 0 0 0 0 0 0 0 0 0 0 0 0 0 0 0 0 0 0 0 0 0 0 0 0 0 0 0 0 0 0
Wind_Speed
1 2 2 2 2 2 1 1 1 1 1 2 3 3 3 4 4 4 3 4 8 9 11 12 12 12 10 7 6 6 6 5 5 4 1 2 4 5 5 5 5 6 7
5 5 4 4 4 3 3 3 3 2 2 3 3 4 4 4 4 4 5 4 4 7 9 10 12 13 13 12 9 8 7 7 6 6 4 2 3 5 5 5 5 6 7
8 7 6 6 5 5 4 4 4 2 2 1 2 2 3 3 4 4 4 4 5 5 7 10 11 12 13 14 13 12 10 8 6 8 7 5 3 4 5 6 6 6 7
10 8 7 7 6 5 4 4 4 3 3 2 3 3 3 3 4 4 4 4 4 5 6 9 11 12 13 14 14 14 14 12 7 8 9 8 5 5 5 6 7 7 8
11 9 8 7 7 6 6 5 5 4 4 4 4 4 3 3 4 4 5 5 5 5 6 7 9 10 12 14 14 15 15 15 12 9 10 10 8 7 7 7 8 9 9
12 10 9 10 8 7 7 6 6 6 5 5 4 4 3 3 3 4 5 5 5 6 7 8 7 7 11 14 15 15 16 16 15 13 10 11 11 10 9 8 9 10 10
13 11 9 10 10 9 10 9 6 7 8 7 5 4 2 2 5 5 5 5 7 7 8 9 7 7 7 12 13 15 16 17 17 16 13 11 13 12 11 10 11 11 12
13 11 12 10 10 9 12 12 10 7 7 8 6 5 4 1 4 5 5 5 7 8 9 10 10 9 8 7 10 15 16 17 18 18 17 15 14 14 14 13 12 13 13
14 13 14 12 11 11 10 12 11 12 8 8 9 7 5 6 7 3 5 5 9 9 10 10 11 11 10 8 8 11 15 18 19 19 19 18 17 15 15 16 14 14 14
13 13 13 12 11 10 11 10 11 9 9 7 6 7 6 5 6 7 5 5 9 10 10 10 11 11 10 8 8 12 14 17 18 19 20 20 20 19 18 17 17 16 15
11 11 11 10 10 9 10 10 9 9 7 7 6 5 5 4 5 5 9 10 9 7 9 11 9 8 9 9 8 11 17 19 19 19 19 20 21 21 21 21 20 19 18
7 10 9 9 9 8 8 8 7 8 7 7 5 5 4 4 5 6 9 12 12 10 11 8 7 7 9 9 9 11 16 19 20 20 20 20 21 21 22 22 23 22 21
6 7 7 7 7 7 7 6 6 6 7 6 5 4 4 4 5 6 9 11 13 12 9 6 6 8 8 7 7 13 16 19 20 20 21 22 22 21 21 22 23 24 24
5 6 6 6 6 6 5 5 4 5 5 5 5 5 4 4 5 6 7 9 12 11 12 14 10 8 6 7 12 21 15 18 20 21 22 22 23 23 22 22 23 24 25
5 5 5 5 5 5 5 5 4 4 4 5 5 6 5 5 5 5 6 7 8 12 15 13 10 8 9 11 16 15 16 19 23 24 24 23 23 23 24 24 24 24 25
5 4 3 3 3 4 4 4 4 4 5 5 5 6 6 5 6 6 6 7 8 11 13 11 13 15 16 14 17 17 16 22 23 24 24 24 24 24 24 24 25 25 26
4 3 2 2 2 2 3 4 4 5 6 6 6 7 8 8 7 7 7 8 8 10 15 15 13 14 19 19 16 15 15 16 15 21 24 25 25 25 24 24 25 25 26
4 3 2 1 1 2 3 4 4 5 6 7 8 8 9 7 9 8 8 9 9 11 13 19 15 13 17 18 18 18 15 14 15 21 25 26 27 27 26 26 25 25 25
4 3 3 2 2 3 4 4 5 6 7 8 8 9 10 10 10 9 10 11 10 10 11 14 17 13 13 13 17 17 18 15 15 16 21 23 24 25 26 26 26 25 23
5 5 4 4 4 4 5 5 6 7 8 8 8 9 10 10 11 12 11 12 11 12 12 13 15 14 13 13 13 14 14 13 13 13 17 18 21 24 26 27 26 23 22
5 5 5 4 5 5 4 6 7 8 9 9 9 9 10 12 15 13 12 12 13 12 12 12 14 14 13 12 12 12 14 14 15 13 13 11 12 12 14 17 18 20 24
6 6 6 6 6 5 6 9 9 9 9 10 10 10 10 11 13 17 19 20 18 15 14 14 14 15 17 15 13 12 13 15 15 9 12 14 13 14 13 13 19 22 22
7 7 7 7 7 7 9 10 11 10 10 9 10 10 9 9 12 13 16 19 18 20 22 18 18 18 18 16 17 17 15 16 16 14 15 17 13 15 13 15 25 27 27
7 7 7 7 7 7 10 11 12 10 9 9 10 11 12 12 12 15 15 16 16 16 19 16 17 19 19 19 18 18 18 19 19 15 15 18 14 14 14 14 22 27 29
7 7 6 7 7 8 10 11 12 8 8 9 10 11 12 13 18 21 18 17 18 17 20 25 27 27 31 32 27 17 16 16 17 14 12 15 15 16 15 15 17 26 28
6 6 6 6 7 8 10 11 11 6 7 8 9 10 13 16 20 23 18 17 19 18 17 18 19 21 21 22 26 20 16 15 16 15 11 12 13 12 12 9 10 10 13
Wind_Direction
69 73 68 69 74 66 79 74 66 87 41 32 29 19 20 12 356 346 343 358 348 351 351 350 345 335 323 302 284 279 275 252 218 206 219 329 333 336 338 344 348 347 344
54 65 63 57 54 50 48 47 44 35 33 18 10 1 347 348 345 336 333 334 339 346 347 346 347 348 346 338 322 296 284 274 232 205 204 233 296 306 307 312 323 331 328
55 62 60 53 46 48 57 65 62 56 48 12 347 333 315 310 310 318 326 330 334 345 346 346 344 343 342 341 337 330 311 287 247 213 210 221 254 289 292 293 298 309 313
54 61 59 53 50 49 47 50 41 42 34 356 327 314 298 293 297 314 324 335 339 340 345 352 345 341 337 335 332 330 327 314 282 238 218 221 235 260 277 287 287 290 295
53 61 58 52 51 53 48 47 43 29 16 353 329 312 301 305 325 336 344 353 355 350 344 344 337 332 333 331 328 325 323 321 312 285 235 222 228 244 262 277 281 282 284
50 58 58 51 47 47 42 38 48 40 18 346 320 310 317 352 11 23 19 27 24 12 359 352 341 339 334 332 328 323 319 317 315 314 275 233 228 237 249 261 272 275 277
51 54 57 52 49 49 42 33 32 36 25 357 336 331 4 65 54 47 40 39 37 24 11 2 353 345 334 333 329 326 320 314 311 311 309 274 242 237 240 250 262 269 271
52 53 55 55 50 52 46 38 33 32 35 23 1 338 342 11 26 21 30 28 19 6 357 351 342 335 328 325 323 323 324 320 314 310 305 305 289 255 241 244 253 262 267
59 59 59 59 54 52 49 42 36 36 36 36 30 13 358 347 329 338 6 4 1 348 342 340 335 329 326 322 320 326 326 323 319 313 308 302 296 288 262 248 246 253 261
60 60 61 60 58 55 52 46 42 39 38 33 30 29 25 350 333 322 322 348 345 334 335 335 329 330 330 328 324 320 328 327 322 317 311 305 299 291 280 267 252 247 251
61 59 59 60 58 54 50 47 43 41 38 34 27 11 4 359 355 315 314 324 324 326 327 322 317 321 329 328 326 336 335 330 325 320 315 309 302 295 289 276 264 253 247
68 61 60 60 56 52 46 42 42 42 36 33 26 20 2 347 339 323 312 316 316 318 316 305 305 319 322 318 323 341 332 327 323 321 316 312 306 298 291 284 272 263 253
78 65 62 60 56 50 44 39 39 36 29 24 16 1 350 338 325 313 305 310 309 311 309 301 301 305 302 307 319 337 321 317 315 315 313 309 305 300 293 286 278 270 260
91 84 73 67 60 50 40 33 34 26 12 6 359 348 331 326 319 312 307 311 309 305 304 305 310 299 299 315 317 319 308 306 306 307 306 303 301 298 293 287 280 274 266
109 97 83 72 59 45 31 22 18 9 354 348 340 333 323 314 308 302 297 294 297 304 305 308 309 308 312 308 305 304 301 300 301 299 297 295 293 292 290 287 283 276 269
127 120 101 76 54 35 17 7 355 349 338 335 328 322 320 314 306 299 293 288 280 283 288 296 299 301 305 302 301 299 295 296 292 290 290 289 288 286 285 284 282 278 272
143 136 116 85 38 8 355 339 336 330 325 321 319 316 312 311 307 304 299 290 284 282 284 290 293 299 301 301 302 300 296 293 289 286 286 286 285 283 281 279 277 275 272
159 158 163 196 298 315 317 313 313 313 311 311 313 310 308 310 306 302 298 295 292 288 286 292 296 298 298 300 301 300 298 292 288 286 284 283 283 281 279 276 273 271 269
185 191 210 233 260 283 292 291 295 299 299 300 301 302 304 305 301 301 299 295 293 291 289 290 294 298 297 299 300 298 297 293 289 288 286 282 280 280 278 275 272 269 266
205 212 222 237 255 271 276 280 289 292 293 292 293 293 295 295 297 300 297 294 294 295 293 291 292 297 299 301 299 300 302 303 301 302 295 289 283 280 278 277 275 272 267
216 223 231 239 248 258 261 279 292 291 293 294 292 290 289 291 291 291 290 294 296 294 294 292 291 295 297 303 303 305 300 303 300 299 294 296 298 292 288 281 273 266 266
211 222 231 237 246 250 264 279 290 293 291 289 291 292 290 285 286 291 291 291 290 288 288 288 288 289 294 297 298 297 299 298 299 305 308 302 302 296 295 292 288 286 280
209 221 230 234 243 253 265 278 288 291 286 285 287 289 289 289 292 291 293 293 289 283 279 279 281 283 288 291 292 291 287 288 287 293 296 291 291 286 285 282 284 282 278
209 221 228 235 246 251 265 282 291 286 280 279 281 284 288 291 293 295 294 290 286 282 279 275 273 276 277 279 278 279 281 280 279 277 278 284 290 288 287 282 280 277 274
212 220 226 231 242 256 268 281 286 283 277 280 281 282 285 289 293 297 296 293 291 287 285 280 276 275 276 277 276 277 278 280 281 279 277 280 288 290 287 283 277 273 272
217 223 233 234 244 255 267 275 281 277 281 285 285 283 283 290 296 300 298 295 293 294 294 293 289 286 283 280 278 272 272 273 276 281 277 273 282 294 293 282 284 291 286